FNG8 EFIV-EFUT

Flight info

Callsign FNG8
Flight time 3h 15m
Altitude 6000
Route NEKUX 691213N0282307E 690616N0284126E 685319N0281210E 684341N0282639E 683237N0281231E 680914N0282837E 673853N0294634E 665550N0285006E 655948N0294831E 654605N0295127E 653958N0293058E 645815N0292414E 642200N0295152E 640502N0301907E 634452N0294758E 625304N0312046E 623121N0310127E 613159N0292452E 605305N0281502E 602958N0273344E PULJU VFR
Aircraft D228/L-SDFGHILORVY/S

Departure

Time 2026-04-28 09:07
Airport Ivalo Airport (EFIV)

Arrival

Time 2026-04-28 12:23
Airport Utti Air Base (EFUT)
Time Latitude Longitude Altitude Speed Heading
2026-04-28 09:00 68.60752 27.41598 473 ft 0 kts 54°
2026-04-28 09:05 68.60769 27.41601 470 ft 6 kts 309°
2026-04-28 09:05 68.60771 27.41422 473 ft 13 kts 262°
2026-04-28 09:05 68.60709 27.41156 468 ft 21 kts 226°
2026-04-28 09:06 68.60631 27.40908 473 ft 13 kts 249°
2026-04-28 09:06 68.60635 27.40626 473 ft 18 kts 273°
2026-04-28 09:06 68.60646 27.40334 473 ft 8 kts 322°
2026-04-28 09:06 68.60700 27.40445 473 ft 30 kts 46°
2026-04-28 09:07 68.60994 27.41296 523 ft 83 kts 40°
2026-04-28 09:07 68.61425 27.42585 832 ft 98 kts 38°
2026-04-28 09:07 68.61912 27.44016 1260 ft 106 kts 40°
2026-04-28 09:07 68.62422 27.45504 1754 ft 116 kts 38°
2026-04-28 09:08 68.63037 27.47285 1926 ft 140 kts 40°
2026-04-28 09:08 68.63709 27.49278 2302 ft 142 kts 40°
2026-04-28 09:08 68.64372 27.51246 2696 ft 143 kts 41°
2026-04-28 09:08 68.65047 27.53243 3110 ft 143 kts 41°
2026-04-28 09:09 68.65726 27.55255 3500 ft 143 kts 41°
2026-04-28 09:09 68.66408 27.57276 3870 ft 145 kts 41°
2026-04-28 09:09 68.67095 27.59314 4246 ft 145 kts 41°
2026-04-28 09:09 68.67785 27.61364 4613 ft 146 kts 41°
2026-04-28 09:10 68.68473 27.63407 4980 ft 146 kts 41°
2026-04-28 09:10 68.69156 27.65445 5320 ft 147 kts 41°
2026-04-28 09:10 68.69857 27.67516 5643 ft 149 kts 41°
2026-04-28 09:10 68.70560 27.69614 5975 ft 150 kts 41°
2026-04-28 09:11 68.71274 27.71741 6249 ft 156 kts 41°
2026-04-28 09:11 68.72046 27.74035 6259 ft 169 kts 42°
2026-04-28 09:11 68.72854 27.76448 6260 ft 173 kts 42°
2026-04-28 09:11 68.73686 27.78859 6258 ft 173 kts 37°
2026-04-28 09:12 68.74693 27.80636 6259 ft 172 kts 22°
2026-04-28 09:12 68.75806 27.81554 6459 ft 162 kts
2026-04-28 09:12 68.76910 27.81651 6735 ft 157 kts 356°
2026-04-28 09:12 68.77996 27.81497 6983 ft 155 kts 358°
2026-04-28 09:13 68.79073 27.81367 7232 ft 155 kts 358°
2026-04-28 09:13 68.80171 27.81226 7255 ft 165 kts 358°
2026-04-28 09:13 68.81337 27.81071 7270 ft 170 kts 358°
2026-04-28 09:13 68.82528 27.80913 7269 ft 172 kts 358°
2026-04-28 09:14 68.83730 27.80752 7275 ft 173 kts 358°
2026-04-28 09:14 68.84936 27.80591 7274 ft 173 kts 358°
2026-04-28 09:14 68.86139 27.80430 7267 ft 173 kts 358°
2026-04-28 09:14 68.87343 27.80269 7280 ft 173 kts 358°
2026-04-28 09:15 68.88532 27.80110 7277 ft 173 kts 358°
2026-04-28 09:15 68.89748 27.79947 7251 ft 173 kts 358°
2026-04-28 09:15 68.90950 27.79785 7266 ft 173 kts 358°
2026-04-28 09:15 68.92159 27.79622 7267 ft 174 kts 358°
2026-04-28 09:16 68.93368 27.79459 7271 ft 174 kts 358°
2026-04-28 09:16 68.94577 27.79296 7271 ft 174 kts 358°
2026-04-28 09:16 68.95787 27.79133 7271 ft 174 kts 358°
2026-04-28 09:16 68.96973 27.79416 7267 ft 174 kts 12°
2026-04-28 09:17 68.98104 27.80623 7265 ft 175 kts 26°
2026-04-28 09:17 68.99086 27.82681 7264 ft 178 kts 39°
2026-04-28 09:17 68.99989 27.85049 7266 ft 178 kts 38°
2026-04-28 09:17 69.00900 27.87397 7267 ft 178 kts 38°
2026-04-28 09:18 69.01808 27.89750 7273 ft 178 kts 38°
2026-04-28 09:18 69.02704 27.92077 7274 ft 178 kts 39°
2026-04-28 09:18 69.03612 27.94439 7266 ft 178 kts 39°
2026-04-28 09:18 69.04521 27.96806 7266 ft 178 kts 39°
2026-04-28 09:19 69.05428 27.99171 7269 ft 179 kts 39°
2026-04-28 09:19 69.06336 28.01541 7269 ft 179 kts 38°
2026-04-28 09:19 69.07245 28.03917 7269 ft 179 kts 38°
2026-04-28 09:19 69.08152 28.06291 7270 ft 179 kts 39°
2026-04-28 09:20 69.09061 28.08674 7270 ft 179 kts 39°
2026-04-28 09:20 69.09969 28.11053 7269 ft 179 kts 39°
2026-04-28 09:20 69.10876 28.13435 7269 ft 179 kts 39°
2026-04-28 09:20 69.11784 28.15814 7274 ft 179 kts 38°
2026-04-28 09:21 69.12388 28.17392 7268 ft 179 kts 38°
2026-04-28 09:21 69.13298 28.19769 7271 ft 178 kts 38°
2026-04-28 09:21 69.14504 28.22903 7273 ft 178 kts 38°
2026-04-28 09:21 69.15416 28.25270 7275 ft 178 kts 38°
2026-04-28 09:22 69.16328 28.27628 7280 ft 178 kts 38°
2026-04-28 09:22 69.17242 28.29985 7280 ft 178 kts 38°
2026-04-28 09:22 69.17858 28.31571 7276 ft 178 kts 38°
2026-04-28 09:22 69.18775 28.33924 7268 ft 178 kts 38°
2026-04-28 09:23 69.19413 28.36925 7258 ft 190 kts 72°
2026-04-28 09:23 69.19239 28.40637 7269 ft 201 kts 103°
2026-04-28 09:23 69.18678 28.44273 7268 ft 205 kts 113°
2026-04-28 09:23 69.17821 28.47549 7266 ft 211 kts 128°
2026-04-28 09:24 69.16695 28.50242 7254 ft 213 kts 135°
2026-04-28 09:24 69.15620 28.53091 7258 ft 212 kts 128°
2026-04-28 09:24 69.14633 28.56141 7261 ft 211 kts 126°
2026-04-28 09:24 69.13655 28.59222 7254 ft 212 kts 127°
2026-04-28 09:25 69.12602 28.62119 7250 ft 215 kts 140°
2026-04-28 09:25 69.11244 28.63963 7238 ft 220 kts 161°
2026-04-28 09:25 69.09722 28.64430 7242 ft 221 kts 184°
2026-04-28 09:25 69.08236 28.63429 7242 ft 219 kts 206°
2026-04-28 09:26 69.06972 28.61151 7251 ft 215 kts 224°
2026-04-28 09:26 69.05819 28.58495 7254 ft 215 kts 223°
2026-04-28 09:26 69.04657 28.55852 7255 ft 215 kts 223°
2026-04-28 09:26 69.03493 28.53211 7252 ft 216 kts 223°
2026-04-28 09:27 69.01182 28.47974 7254 ft 216 kts 223°
2026-04-28 09:27 69.00002 28.45302 7255 ft 215 kts 223°
2026-04-28 09:27 68.98853 28.42706 7255 ft 216 kts 223°
2026-04-28 09:28 68.97683 28.40068 7257 ft 216 kts 223°
2026-04-28 09:28 68.96516 28.37440 7257 ft 216 kts 223°
2026-04-28 09:28 68.95347 28.34809 7262 ft 216 kts 223°
2026-04-28 09:28 68.94180 28.32186 7268 ft 216 kts 223°
2026-04-28 09:29 68.93011 28.29564 7267 ft 216 kts 223°
2026-04-28 09:29 68.91837 28.26934 7255 ft 216 kts 223°
2026-04-28 09:29 68.90644 28.24394 7262 ft 217 kts 215°
2026-04-28 09:29 68.89225 28.22911 7253 ft 220 kts 192°
2026-04-28 09:30 68.87695 28.22843 7249 ft 221 kts 169°
2026-04-28 09:30 68.86256 28.24206 7247 ft 217 kts 148°
2026-04-28 09:30 68.84936 28.26221 7250 ft 217 kts 148°
2026-04-28 09:30 68.83608 28.28225 7259 ft 218 kts 148°
2026-04-28 09:31 68.82275 28.30230 7257 ft 218 kts 148°
2026-04-28 09:31 68.80941 28.32236 7257 ft 218 kts 148°
2026-04-28 09:31 68.79608 28.34240 7254 ft 218 kts 148°
2026-04-28 09:31 68.78293 28.36212 7254 ft 218 kts 148°
2026-04-28 09:32 68.76960 28.38211 7254 ft 218 kts 148°
2026-04-28 09:32 68.75625 28.40208 7253 ft 218 kts 148°
2026-04-28 09:32 68.74282 28.42136 7251 ft 218 kts 154°
2026-04-28 09:32 68.72788 28.42976 7228 ft 221 kts 178°
2026-04-28 09:33 68.71278 28.42374 7238 ft 220 kts 200°
2026-04-28 09:33 68.69892 28.40677 7246 ft 218 kts 208°
2026-04-28 09:33 68.68515 28.38900 7250 ft 219 kts 207°
2026-04-28 09:33 68.67132 28.37127 7250 ft 219 kts 207°
2026-04-28 09:34 68.65751 28.35362 7245 ft 219 kts 207°
2026-04-28 09:34 68.64374 28.33601 7251 ft 218 kts 207°
2026-04-28 09:34 68.62998 28.31843 7250 ft 218 kts 207°
2026-04-28 09:34 68.61622 28.30088 7251 ft 219 kts 207°
2026-04-28 09:35 68.60240 28.28327 7256 ft 219 kts 207°
2026-04-28 09:35 68.58856 28.26566 7259 ft 220 kts 207°
2026-04-28 09:35 68.57473 28.24810 7257 ft 219 kts 207°
2026-04-28 09:35 68.56090 28.23057 7255 ft 219 kts 207°
2026-04-28 09:36 68.54653 28.21692 7235 ft 221 kts 189°
2026-04-28 09:36 68.53123 28.21740 7246 ft 220 kts 168°
2026-04-28 09:36 68.51648 28.22765 7255 ft 219 kts 163°
2026-04-28 09:36 68.50170 28.23800 7244 ft 219 kts 163°
2026-04-28 09:37 68.48687 28.24829 7247 ft 220 kts 163°
2026-04-28 09:37 68.47203 28.25862 7253 ft 221 kts 163°
2026-04-28 09:37 68.45713 28.26899 7253 ft 221 kts 162°
2026-04-28 09:37 68.44221 28.27937 7254 ft 222 kts 162°
2026-04-28 09:38 68.42720 28.28978 7246 ft 222 kts 162°
2026-04-28 09:38 68.41241 28.30002 7249 ft 221 kts 163°
2026-04-28 09:38 68.39746 28.31037 7255 ft 221 kts 163°
2026-04-28 09:38 68.38252 28.32069 7246 ft 222 kts 162°
2026-04-28 09:39 68.36755 28.33103 7245 ft 222 kts 162°
2026-04-28 09:39 68.35260 28.34133 7248 ft 222 kts 163°
2026-04-28 09:39 68.33770 28.35157 7245 ft 221 kts 163°
2026-04-28 09:39 68.32281 28.36182 7251 ft 221 kts 163°
2026-04-28 09:40 68.30790 28.37206 7258 ft 222 kts 163°
2026-04-28 09:40 68.29295 28.38230 7251 ft 222 kts 163°
2026-04-28 09:40 68.27806 28.39249 7231 ft 220 kts 163°
2026-04-28 09:40 68.26323 28.40263 7235 ft 220 kts 163°
2026-04-28 09:41 68.24838 28.41277 7234 ft 221 kts 163°
2026-04-28 09:41 68.23344 28.42296 7235 ft 222 kts 163°
2026-04-28 09:41 68.21847 28.43314 7234 ft 222 kts 163°
2026-04-28 09:41 68.20345 28.44336 7231 ft 222 kts 163°
2026-04-28 09:42 68.18850 28.45351 7231 ft 220 kts 163°
2026-04-28 09:42 68.17362 28.46360 7238 ft 220 kts 163°
2026-04-28 09:42 68.15893 28.47488 7230 ft 218 kts 153°
2026-04-28 09:42 68.14641 28.49675 7231 ft 212 kts 131°
2026-04-28 09:43 68.13612 28.52407 7234 ft 211 kts 129°
2026-04-28 09:43 68.12553 28.55209 7229 ft 211 kts 129°
2026-04-28 09:43 68.11517 28.57942 7218 ft 212 kts 129°
2026-04-28 09:43 68.10464 28.60715 7216 ft 213 kts 129°
2026-04-28 09:44 68.09408 28.63495 7218 ft 213 kts 130°
2026-04-28 09:44 68.08353 28.66270 7222 ft 213 kts 130°
2026-04-28 09:44 68.07299 28.69038 7221 ft 212 kts 129°
2026-04-28 09:44 68.06247 28.71799 7219 ft 212 kts 129°
2026-04-28 09:45 68.05192 28.74562 7216 ft 212 kts 129°
2026-04-28 09:45 68.04138 28.77317 7220 ft 211 kts 129°
2026-04-28 09:45 68.03087 28.80060 7214 ft 211 kts 130°
2026-04-28 09:45 68.02040 28.82789 7214 ft 210 kts 130°
2026-04-28 09:46 68.00995 28.85516 7205 ft 210 kts 129°
2026-04-28 09:46 67.99948 28.88240 7199 ft 210 kts 129°
2026-04-28 09:46 67.98898 28.90967 7204 ft 211 kts 129°
2026-04-28 09:46 67.97848 28.93693 7205 ft 211 kts 130°
2026-04-28 09:47 67.96796 28.96420 7199 ft 211 kts 129°
2026-04-28 09:47 67.95745 28.99137 7199 ft 211 kts 130°
2026-04-28 09:47 67.94693 29.01857 7204 ft 211 kts 130°
2026-04-28 09:47 67.93641 29.04571 7204 ft 211 kts 130°
2026-04-28 09:48 67.92588 29.07284 7207 ft 211 kts 130°
2026-04-28 09:48 67.91548 29.09963 7203 ft 211 kts 130°
2026-04-28 09:48 67.90491 29.12677 7207 ft 211 kts 130°
2026-04-28 09:48 67.89435 29.15390 7210 ft 211 kts 130°
2026-04-28 09:49 67.88379 29.18098 7211 ft 211 kts 130°
2026-04-28 09:49 67.87323 29.20801 7209 ft 211 kts 130°
2026-04-28 09:49 67.86268 29.23499 7210 ft 211 kts 130°
2026-04-28 09:49 67.85210 29.26198 7207 ft 211 kts 130°
2026-04-28 09:50 67.84155 29.28891 7209 ft 211 kts 130°
2026-04-28 09:50 67.83097 29.31582 7210 ft 211 kts 130°
2026-04-28 09:50 67.82041 29.34271 7212 ft 211 kts 130°
2026-04-28 09:50 67.80979 29.36964 7204 ft 212 kts 130°
2026-04-28 09:51 67.79918 29.39652 7209 ft 211 kts 130°
2026-04-28 09:51 67.78860 29.42334 7204 ft 211 kts 130°
2026-04-28 09:51 67.77803 29.45007 7204 ft 210 kts 130°
2026-04-28 09:51 67.76748 29.47673 7205 ft 210 kts 130°
2026-04-28 09:52 67.75693 29.50337 7206 ft 210 kts 130°
2026-04-28 09:52 67.74894 29.52351 7208 ft 210 kts 130°
2026-04-28 09:52 67.73835 29.55016 7206 ft 210 kts 130°
2026-04-28 09:53 67.72777 29.57676 7207 ft 210 kts 130°
2026-04-28 09:53 67.71720 29.60327 7203 ft 209 kts 130°
2026-04-28 09:53 67.70666 29.62976 7193 ft 210 kts 130°
2026-04-28 09:53 67.69608 29.65625 7193 ft 210 kts 130°
2026-04-28 09:54 67.68551 29.68266 7189 ft 210 kts 130°
2026-04-28 09:54 67.67495 29.70905 7192 ft 210 kts 130°
2026-04-28 09:54 67.66384 29.73392 7185 ft 213 kts 142°
2026-04-28 09:54 67.64991 29.74875 7182 ft 220 kts 164°
2026-04-28 09:55 67.63460 29.75042 7178 ft 223 kts 186°
2026-04-28 09:55 67.61990 29.73819 7188 ft 222 kts 208°
2026-04-28 09:55 67.60619 29.71943 7193 ft 223 kts 209°
2026-04-28 09:55 67.59243 29.70080 7196 ft 222 kts 208°
2026-04-28 09:56 67.57867 29.68228 7197 ft 222 kts 209°
2026-04-28 09:56 67.56490 29.66375 7197 ft 223 kts 209°
2026-04-28 09:56 67.55128 29.64542 7200 ft 223 kts 208°
2026-04-28 09:56 67.53728 29.62662 7198 ft 223 kts 209°
2026-04-28 09:57 67.52369 29.60837 7200 ft 223 kts 208°
2026-04-28 09:57 67.50987 29.58987 7193 ft 223 kts 208°
2026-04-28 09:57 67.49609 29.57143 7195 ft 223 kts 208°
2026-04-28 09:57 67.48229 29.55298 7194 ft 223 kts 208°
2026-04-28 09:58 67.46845 29.53453 7195 ft 224 kts 208°
2026-04-28 09:58 67.45456 29.51601 7194 ft 224 kts 208°
2026-04-28 09:58 67.44072 29.49759 7197 ft 223 kts 208°
2026-04-28 09:58 67.42686 29.47916 7193 ft 224 kts 208°
2026-04-28 09:59 67.41301 29.46076 7196 ft 224 kts 208°
2026-04-28 09:59 67.39912 29.44236 7193 ft 224 kts 208°
2026-04-28 09:59 67.38528 29.42403 7199 ft 223 kts 208°
2026-04-28 09:59 67.37142 29.40571 7199 ft 224 kts 208°
2026-04-28 10:00 67.35757 29.38743 7198 ft 223 kts 208°
2026-04-28 10:00 67.34374 29.36919 7197 ft 223 kts 208°
2026-04-28 10:00 67.32990 29.35095 7198 ft 224 kts 208°
2026-04-28 10:00 67.31604 29.33271 7199 ft 223 kts 208°
2026-04-28 10:01 67.30219 29.31452 7200 ft 223 kts 208°
2026-04-28 10:01 67.28836 29.29638 7200 ft 222 kts 208°
2026-04-28 10:01 67.27457 29.27831 7200 ft 222 kts 208°
2026-04-28 10:01 67.26077 29.26025 7200 ft 223 kts 208°
2026-04-28 10:02 67.24694 29.24216 7204 ft 223 kts 208°
2026-04-28 10:02 67.23306 29.22406 7204 ft 223 kts 208°
2026-04-28 10:02 67.21937 29.20620 7203 ft 223 kts 208°
2026-04-28 10:02 67.20551 29.18818 7202 ft 223 kts 208°
2026-04-28 10:03 67.19164 29.17016 7201 ft 224 kts 208°
2026-04-28 10:03 67.17772 29.15207 7201 ft 224 kts 208°
2026-04-28 10:03 67.16376 29.13396 7202 ft 224 kts 207°
2026-04-28 10:03 67.14984 29.11593 7205 ft 224 kts 207°
2026-04-28 10:04 67.13590 29.09790 7206 ft 224 kts 207°
2026-04-28 10:04 67.12200 29.07996 7206 ft 223 kts 207°
2026-04-28 10:04 67.10811 29.06204 7205 ft 224 kts 207°
2026-04-28 10:04 67.09420 29.04410 7208 ft 224 kts 207°
2026-04-28 10:05 67.08030 29.02622 7208 ft 223 kts 207°
2026-04-28 10:05 67.06643 29.00840 7210 ft 223 kts 207°
2026-04-28 10:05 67.05254 28.99058 7208 ft 224 kts 207°
2026-04-28 10:05 67.03863 28.97275 7209 ft 223 kts 207°
2026-04-28 10:06 67.02478 28.95503 7207 ft 223 kts 207°
2026-04-28 10:06 67.01087 28.93723 7207 ft 224 kts 207°
2026-04-28 10:06 66.99693 28.91943 7210 ft 223 kts 207°
2026-04-28 10:06 66.98302 28.90171 7208 ft 224 kts 207°
2026-04-28 10:07 66.96911 28.88399 7198 ft 224 kts 207°
2026-04-28 10:07 66.95536 28.86649 7197 ft 224 kts 207°
2026-04-28 10:07 66.94110 28.85054 7190 ft 224 kts 195°
2026-04-28 10:07 66.92568 28.84688 7190 ft 222 kts 173°
2026-04-28 10:08 66.91092 28.85612 7193 ft 216 kts 152°
2026-04-28 10:08 66.89709 28.87131 7201 ft 217 kts 152°
2026-04-28 10:08 66.88319 28.88634 7199 ft 217 kts 152°
2026-04-28 10:08 66.86925 28.90136 7200 ft 218 kts 152°
2026-04-28 10:09 66.85534 28.91636 7222 ft 217 kts 152°
2026-04-28 10:09 66.84144 28.93134 7208 ft 217 kts 151°
2026-04-28 10:09 66.83220 28.94130 7208 ft 216 kts 152°
2026-04-28 10:09 66.81387 28.96103 7209 ft 216 kts 152°
2026-04-28 10:10 66.80003 28.97589 7207 ft 216 kts 151°
2026-04-28 10:10 66.78621 28.99070 7205 ft 216 kts 152°
2026-04-28 10:10 66.77686 29.00073 7193 ft 216 kts 152°
2026-04-28 10:10 66.76301 29.01556 7193 ft 216 kts 151°
2026-04-28 10:11 66.74915 29.03038 7193 ft 216 kts 152°
2026-04-28 10:11 66.73531 29.04515 7192 ft 216 kts 152°
2026-04-28 10:11 66.72148 29.05990 7193 ft 216 kts 151°
2026-04-28 10:11 66.70763 29.07466 7191 ft 216 kts 151°
2026-04-28 10:12 66.69395 29.08921 7196 ft 216 kts 151°
2026-04-28 10:12 66.68006 29.10399 7196 ft 217 kts 152°
2026-04-28 10:12 66.66615 29.11873 7190 ft 216 kts 152°
2026-04-28 10:12 66.65229 29.13342 7197 ft 216 kts 152°
2026-04-28 10:13 66.63841 29.14813 7196 ft 217 kts 152°
2026-04-28 10:13 66.62453 29.16281 7196 ft 217 kts 152°
2026-04-28 10:13 66.61065 29.17745 7182 ft 216 kts 152°
2026-04-28 10:13 66.59682 29.19205 7182 ft 216 kts 152°
2026-04-28 10:14 66.58297 29.20664 7182 ft 216 kts 152°
2026-04-28 10:14 66.56911 29.22124 7182 ft 216 kts 152°
2026-04-28 10:14 66.55525 29.23580 7182 ft 216 kts 152°
2026-04-28 10:14 66.54133 29.25042 7179 ft 216 kts 152°
2026-04-28 10:15 66.52746 29.26495 7182 ft 216 kts 152°
2026-04-28 10:15 66.51360 29.27947 7180 ft 217 kts 152°
2026-04-28 10:15 66.49969 29.29403 7181 ft 217 kts 152°
2026-04-28 10:15 66.48577 29.30855 7182 ft 217 kts 152°
2026-04-28 10:16 66.47185 29.32308 7184 ft 217 kts 152°
2026-04-28 10:16 66.45790 29.33764 7167 ft 218 kts 152°
2026-04-28 10:16 66.44391 29.35219 7166 ft 218 kts 152°
2026-04-28 10:16 66.42991 29.36674 7166 ft 217 kts 152°
2026-04-28 10:17 66.41598 29.38121 7166 ft 217 kts 151°
2026-04-28 10:17 66.40205 29.39565 7165 ft 217 kts 151°
2026-04-28 10:17 66.38813 29.41008 7166 ft 217 kts 152°
2026-04-28 10:17 66.37420 29.42448 7166 ft 217 kts 152°
2026-04-28 10:18 66.36025 29.43889 7165 ft 217 kts 152°
2026-04-28 10:18 66.34632 29.45328 7166 ft 217 kts 152°
2026-04-28 10:18 66.33237 29.46766 7167 ft 218 kts 152°
2026-04-28 10:18 66.31839 29.48205 7168 ft 217 kts 152°
2026-04-28 10:19 66.30441 29.49642 7155 ft 217 kts 152°
2026-04-28 10:19 66.29045 29.51076 7154 ft 217 kts 152°
2026-04-28 10:19 66.27650 29.52509 7155 ft 217 kts 152°
2026-04-28 10:19 66.26251 29.53942 7156 ft 218 kts 152°
2026-04-28 10:20 66.24897 29.55322 7381 ft 208 kts 152°
2026-04-28 10:20 66.23573 29.56675 7629 ft 204 kts 152°
2026-04-28 10:20 66.22268 29.58014 7885 ft 202 kts 152°
2026-04-28 10:20 66.20967 29.59343 8131 ft 203 kts 152°
2026-04-28 10:21 66.19629 29.60712 8146 ft 212 kts 152°
2026-04-28 10:21 66.18243 29.62121 8156 ft 217 kts 152°
2026-04-28 10:21 66.16842 29.63541 8155 ft 218 kts 153°
2026-04-28 10:21 66.15433 29.64968 8162 ft 219 kts 152°
2026-04-28 10:22 66.14023 29.66399 8144 ft 219 kts 153°
2026-04-28 10:22 66.12612 29.67828 8141 ft 219 kts 153°
2026-04-28 10:22 66.11200 29.69256 8139 ft 220 kts 152°
2026-04-28 10:22 66.09787 29.70684 8145 ft 220 kts 152°
2026-04-28 10:23 66.08372 29.72112 8128 ft 220 kts 152°
2026-04-28 10:23 66.06957 29.73538 8126 ft 220 kts 152°
2026-04-28 10:23 66.05539 29.74965 8128 ft 220 kts 152°
2026-04-28 10:23 66.04123 29.76388 8125 ft 220 kts 152°
2026-04-28 10:24 66.02709 29.77809 8126 ft 219 kts 152°
2026-04-28 10:24 66.01298 29.79225 8126 ft 219 kts 152°
2026-04-28 10:24 65.99877 29.80603 8124 ft 220 kts 158°
2026-04-28 10:24 65.98350 29.81147 8111 ft 223 kts 172°
2026-04-28 10:25 65.96800 29.81469 8108 ft 224 kts 171°
2026-04-28 10:25 65.95247 29.81810 8111 ft 224 kts 171°
2026-04-28 10:25 65.93693 29.82147 8113 ft 224 kts 171°
2026-04-28 10:25 65.92137 29.82480 8112 ft 224 kts 171°
2026-04-28 10:26 65.90602 29.82809 8111 ft 225 kts 171°
2026-04-28 10:26 65.89047 29.83142 8112 ft 225 kts 171°
2026-04-28 10:26 65.87490 29.83474 8112 ft 225 kts 171°
2026-04-28 10:26 65.85932 29.83807 8112 ft 224 kts 171°
2026-04-28 10:27 65.84378 29.84139 8116 ft 225 kts 171°
2026-04-28 10:27 65.82821 29.84471 8116 ft 225 kts 171°
2026-04-28 10:27 65.81265 29.84802 8117 ft 224 kts 171°
2026-04-28 10:27 65.79709 29.85133 8117 ft 224 kts 171°
2026-04-28 10:28 65.78151 29.85031 8114 ft 227 kts 190°
2026-04-28 10:28 65.76676 29.83668 8110 ft 228 kts 211°
2026-04-28 10:28 65.75475 29.81220 8115 ft 224 kts 233°
2026-04-28 10:29 65.73650 29.75122 8120 ft 223 kts 238°
2026-04-28 10:29 65.72738 29.72065 8122 ft 223 kts 238°
2026-04-28 10:29 65.71827 29.69012 8126 ft 223 kts 238°
2026-04-28 10:29 65.70913 29.65951 8125 ft 224 kts 238°
2026-04-28 10:30 65.69997 29.62892 8123 ft 224 kts 238°
2026-04-28 10:30 65.69081 29.59835 8124 ft 224 kts 238°
2026-04-28 10:30 65.68165 29.56781 8125 ft 224 kts 238°
2026-04-28 10:30 65.67154 29.53915 8108 ft 226 kts 221°
2026-04-28 10:31 65.65799 29.51971 8114 ft 227 kts 200°
2026-04-28 10:31 65.64263 29.51203 8117 ft 225 kts 180°
2026-04-28 10:31 65.62703 29.50966 8119 ft 225 kts 180°
2026-04-28 10:31 65.61139 29.50708 8122 ft 225 kts 180°
2026-04-28 10:32 65.59578 29.50447 8120 ft 224 kts 180°
2026-04-28 10:32 65.58018 29.50190 8121 ft 225 kts 180°
2026-04-28 10:32 65.56456 29.49934 8118 ft 225 kts 180°
2026-04-28 10:32 65.54892 29.49676 8121 ft 225 kts 180°
2026-04-28 10:33 65.53333 29.49420 8110 ft 224 kts 180°
2026-04-28 10:33 65.51773 29.49165 8109 ft 225 kts 180°
2026-04-28 10:33 65.50206 29.48910 8110 ft 226 kts 180°
2026-04-28 10:33 65.48640 29.48652 8110 ft 226 kts 180°
2026-04-28 10:34 65.47073 29.48395 8107 ft 226 kts 180°
2026-04-28 10:34 65.45529 29.48144 8107 ft 226 kts 181°
2026-04-28 10:34 65.43962 29.47889 8108 ft 226 kts 180°
2026-04-28 10:34 65.42393 29.47634 8109 ft 226 kts 180°
2026-04-28 10:35 65.40827 29.47379 8110 ft 226 kts 180°
2026-04-28 10:35 65.39261 29.47124 8113 ft 225 kts 180°
2026-04-28 10:35 65.37697 29.46871 8111 ft 225 kts 180°
2026-04-28 10:35 65.36130 29.46617 8110 ft 226 kts 180°
2026-04-28 10:36 65.34564 29.46363 8111 ft 226 kts 180°
2026-04-28 10:36 65.32997 29.46110 8109 ft 226 kts 180°
2026-04-28 10:36 65.31434 29.45859 8111 ft 225 kts 181°
2026-04-28 10:36 65.29867 29.45606 8107 ft 225 kts 181°
2026-04-28 10:37 65.28306 29.45353 8107 ft 225 kts 180°
2026-04-28 10:37 65.26743 29.45104 8108 ft 225 kts 181°
2026-04-28 10:37 65.25186 29.44852 8108 ft 224 kts 180°
2026-04-28 10:37 65.23628 29.44603 8098 ft 226 kts 180°
2026-04-28 10:38 65.22062 29.44350 8099 ft 225 kts 180°
2026-04-28 10:38 65.20494 29.44101 8098 ft 226 kts 180°
2026-04-28 10:38 65.18920 29.43849 8098 ft 227 kts 180°
2026-04-28 10:38 65.17346 29.43597 8100 ft 227 kts 180°
2026-04-28 10:39 65.15772 29.43346 8099 ft 227 kts 180°
2026-04-28 10:39 65.14197 29.43096 8099 ft 227 kts 180°
2026-04-28 10:39 65.12618 29.42844 8101 ft 227 kts 180°
2026-04-28 10:39 65.11066 29.42597 8099 ft 226 kts 180°
2026-04-28 10:40 65.09494 29.42347 8098 ft 226 kts 180°
2026-04-28 10:40 65.07922 29.42099 8100 ft 227 kts 180°
2026-04-28 10:40 65.06347 29.41849 8100 ft 227 kts 180°
2026-04-28 10:40 65.04775 29.41599 8101 ft 226 kts 180°
2026-04-28 10:41 65.03206 29.41353 8102 ft 226 kts 180°
2026-04-28 10:41 65.01633 29.41105 8102 ft 227 kts 180°
2026-04-28 10:41 65.00057 29.40856 8102 ft 227 kts 180°
2026-04-28 10:41 64.98481 29.40607 8104 ft 227 kts 180°
2026-04-28 10:42 64.96915 29.40637 8097 ft 222 kts 165°
2026-04-28 10:42 64.95450 29.41658 8076 ft 218 kts 155°
2026-04-28 10:42 64.94005 29.42789 8078 ft 219 kts 156°
2026-04-28 10:42 64.92558 29.43913 8078 ft 219 kts 156°
2026-04-28 10:43 64.91109 29.45037 8081 ft 219 kts 156°
2026-04-28 10:43 64.89663 29.46161 8082 ft 219 kts 155°
2026-04-28 10:43 64.88215 29.47283 8081 ft 219 kts 156°
2026-04-28 10:43 64.86769 29.48403 8082 ft 219 kts 156°
2026-04-28 10:44 64.85320 29.49525 8081 ft 219 kts 156°
2026-04-28 10:44 64.83874 29.50642 8081 ft 219 kts 156°
2026-04-28 10:44 64.82426 29.51759 8082 ft 219 kts 156°
2026-04-28 10:44 64.80978 29.52877 8082 ft 219 kts 156°
2026-04-28 10:45 64.79527 29.53994 8070 ft 219 kts 156°
2026-04-28 10:45 64.78099 29.55092 8071 ft 219 kts 156°
2026-04-28 10:45 64.76653 29.56203 8070 ft 219 kts 156°
2026-04-28 10:45 64.75207 29.57314 8071 ft 219 kts 155°
2026-04-28 10:46 64.73757 29.58425 8072 ft 219 kts 155°
2026-04-28 10:46 64.72305 29.59537 8071 ft 220 kts 156°
2026-04-28 10:46 64.70851 29.60650 8076 ft 221 kts 155°
2026-04-28 10:46 64.69395 29.61762 8077 ft 220 kts 155°
2026-04-28 10:47 64.67944 29.62868 8074 ft 219 kts 155°
2026-04-28 10:47 64.66492 29.63976 8073 ft 220 kts 155°
2026-04-28 10:47 64.65038 29.65084 8074 ft 220 kts 155°
2026-04-28 10:47 64.63577 29.66196 8073 ft 220 kts 155°
2026-04-28 10:48 64.62115 29.67306 8065 ft 221 kts 155°
2026-04-28 10:48 64.60656 29.68414 8066 ft 221 kts 155°
2026-04-28 10:48 64.59195 29.69521 8067 ft 221 kts 155°
2026-04-28 10:48 64.57734 29.70628 8068 ft 221 kts 155°
2026-04-28 10:49 64.56271 29.71734 8070 ft 221 kts 155°
2026-04-28 10:49 64.54809 29.72839 8071 ft 221 kts 155°
2026-04-28 10:49 64.53347 29.73941 8061 ft 221 kts 156°
2026-04-28 10:49 64.51885 29.75044 8061 ft 221 kts 156°
2026-04-28 10:50 64.50423 29.76144 8059 ft 221 kts 156°
2026-04-28 10:50 64.49459 29.76870 8062 ft 220 kts 156°
2026-04-28 10:50 64.47527 29.78321 8060 ft 220 kts 156°
2026-04-28 10:50 64.46071 29.79414 8051 ft 220 kts 156°
2026-04-28 10:51 64.44612 29.80507 8050 ft 220 kts 156°
2026-04-28 10:51 64.43157 29.81597 8049 ft 220 kts 155°
2026-04-28 10:51 64.41703 29.82685 8049 ft 220 kts 156°
2026-04-28 10:51 64.40247 29.83773 8051 ft 220 kts 156°
2026-04-28 10:52 64.38786 29.84863 8051 ft 221 kts 156°
2026-04-28 10:52 64.37326 29.85953 8045 ft 220 kts 155°
2026-04-28 10:52 64.35995 29.87517 8037 ft 211 kts 136°
2026-04-28 10:52 64.34801 29.89489 8038 ft 212 kts 137°
2026-04-28 10:53 64.33591 29.91441 8041 ft 213 kts 137°
2026-04-28 10:53 64.32382 29.93397 8041 ft 211 kts 137°
2026-04-28 10:53 64.31176 29.95348 8043 ft 212 kts 136°
2026-04-28 10:53 64.29970 29.97301 8045 ft 212 kts 136°
2026-04-28 10:54 64.28764 29.99251 8046 ft 212 kts 136°
2026-04-28 10:54 64.27557 30.01198 8045 ft 212 kts 136°
2026-04-28 10:54 64.26756 30.02491 8046 ft 212 kts 136°
2026-04-28 10:54 64.25548 30.04437 8044 ft 212 kts 136°
2026-04-28 10:55 64.24340 30.06380 8045 ft 212 kts 136°
2026-04-28 10:55 64.23132 30.08323 8043 ft 212 kts 136°
2026-04-28 10:55 64.21533 30.10890 8043 ft 212 kts 136°
2026-04-28 10:55 64.20719 30.12197 8045 ft 211 kts 136°
2026-04-28 10:56 64.19510 30.14134 8034 ft 212 kts 136°
2026-04-28 10:56 64.18300 30.16069 8032 ft 212 kts 136°
2026-04-28 10:56 64.17091 30.18004 8033 ft 212 kts 136°
2026-04-28 10:56 64.15882 30.19935 8035 ft 212 kts 136°
2026-04-28 10:57 64.14671 30.21867 8031 ft 212 kts 136°
2026-04-28 10:57 64.13460 30.23796 8032 ft 212 kts 136°
2026-04-28 10:57 64.12251 30.25720 8031 ft 211 kts 136°
2026-04-28 10:57 64.11041 30.27639 8031 ft 212 kts 137°
2026-04-28 10:58 64.09667 30.29044 8020 ft 222 kts 158°
2026-04-28 10:58 64.08107 30.29425 8019 ft 230 kts 178°
2026-04-28 10:58 64.06535 30.28639 8017 ft 234 kts 200°
2026-04-28 10:58 64.05130 30.26779 8020 ft 233 kts 216°
2026-04-28 10:59 64.03792 30.24669 8024 ft 234 kts 215°
2026-04-28 10:59 64.02451 30.22574 8027 ft 233 kts 215°
2026-04-28 10:59 64.01111 30.20490 8028 ft 233 kts 215°
2026-04-28 10:59 63.99773 30.18407 8027 ft 232 kts 215°
2026-04-28 11:00 63.98437 30.16331 8030 ft 232 kts 215°
2026-04-28 11:00 63.97103 30.14259 8027 ft 233 kts 215°
2026-04-28 11:00 63.95765 30.12184 8027 ft 233 kts 215°
2026-04-28 11:00 63.94426 30.10108 8027 ft 233 kts 215°
2026-04-28 11:01 63.93083 30.08029 8026 ft 233 kts 215°
2026-04-28 11:01 63.91740 30.05954 8028 ft 234 kts 215°
2026-04-28 11:01 63.90396 30.03879 8025 ft 234 kts 215°
2026-04-28 11:01 63.89054 30.01810 8027 ft 232 kts 215°
2026-04-28 11:02 63.87731 29.99774 8025 ft 233 kts 215°
2026-04-28 11:02 63.86390 29.97710 8026 ft 233 kts 215°
2026-04-28 11:02 63.85048 29.95647 8027 ft 234 kts 215°
2026-04-28 11:02 63.83700 29.93578 8027 ft 234 kts 215°
2026-04-28 11:03 63.82349 29.91507 8028 ft 235 kts 215°
2026-04-28 11:03 63.80998 29.89437 8028 ft 235 kts 214°
2026-04-28 11:03 63.79646 29.87371 8017 ft 234 kts 215°
2026-04-28 11:03 63.78299 29.85313 8017 ft 234 kts 215°
2026-04-28 11:04 63.76902 29.83464 8012 ft 233 kts 200°
2026-04-28 11:04 63.75336 29.82698 8009 ft 229 kts 179°
2026-04-28 11:04 63.73782 29.83073 8004 ft 222 kts 158°
2026-04-28 11:04 63.72399 29.84459 8005 ft 214 kts 139°
2026-04-28 11:05 63.71253 29.86511 7956 ft 211 kts 131°
2026-04-28 11:05 63.70098 29.88668 7711 ft 219 kts 132°
2026-04-28 11:05 63.68911 29.90856 7454 ft 221 kts 132°
2026-04-28 11:05 63.67719 29.93054 7230 ft 221 kts 131°
2026-04-28 11:06 63.66532 29.95251 7020 ft 219 kts 131°
2026-04-28 11:06 63.65373 29.97384 7017 ft 212 kts 131°
2026-04-28 11:06 63.64238 29.99485 7012 ft 210 kts 130°
2026-04-28 11:06 63.63110 30.01571 7008 ft 209 kts 130°
2026-04-28 11:07 63.61986 30.03645 6997 ft 209 kts 130°
2026-04-28 11:07 63.60862 30.05714 6998 ft 209 kts 130°
2026-04-28 11:07 63.59741 30.07775 6997 ft 208 kts 130°
2026-04-28 11:07 63.58619 30.09835 6997 ft 208 kts 130°
2026-04-28 11:08 63.57499 30.11893 6998 ft 208 kts 130°
2026-04-28 11:08 63.56378 30.13947 6999 ft 208 kts 131°
2026-04-28 11:08 63.55270 30.15977 6999 ft 208 kts 130°
2026-04-28 11:08 63.54147 30.18032 7001 ft 208 kts 130°
2026-04-28 11:09 63.53022 30.20087 6998 ft 208 kts 130°
2026-04-28 11:09 63.51900 30.22133 6987 ft 208 kts 130°
2026-04-28 11:09 63.50781 30.24175 6987 ft 207 kts 130°
2026-04-28 11:09 63.49660 30.26218 6986 ft 208 kts 131°
2026-04-28 11:10 63.48538 30.28260 6988 ft 208 kts 131°
2026-04-28 11:10 63.47415 30.30302 6987 ft 208 kts 130°
2026-04-28 11:10 63.46290 30.32344 6987 ft 208 kts 130°
2026-04-28 11:10 63.45168 30.34382 6990 ft 209 kts 131°
2026-04-28 11:11 63.44038 30.36431 6992 ft 210 kts 131°
2026-04-28 11:11 63.42903 30.38483 6992 ft 210 kts 131°
2026-04-28 11:11 63.41770 30.40530 6988 ft 209 kts 131°
2026-04-28 11:11 63.40638 30.42576 6989 ft 210 kts 130°
2026-04-28 11:12 63.39502 30.44627 6989 ft 210 kts 130°
2026-04-28 11:12 63.38369 30.46671 6991 ft 210 kts 130°
2026-04-28 11:12 63.37231 30.48720 6990 ft 210 kts 131°
2026-04-28 11:12 63.36095 30.50764 6990 ft 210 kts 131°
2026-04-28 11:13 63.34956 30.52809 6990 ft 209 kts 131°
2026-04-28 11:13 63.33824 30.54839 6989 ft 208 kts 131°
2026-04-28 11:13 63.32698 30.56859 6987 ft 208 kts 130°
2026-04-28 11:13 63.31568 30.58887 6987 ft 209 kts 131°
2026-04-28 11:14 63.30433 30.60918 6974 ft 210 kts 131°
2026-04-28 11:14 63.29295 30.62953 6974 ft 210 kts 131°
2026-04-28 11:14 63.28156 30.64985 6976 ft 210 kts 131°
2026-04-28 11:14 63.27016 30.67020 6976 ft 210 kts 131°
2026-04-28 11:15 63.25875 30.69054 6976 ft 210 kts 130°
2026-04-28 11:15 63.24746 30.71065 6969 ft 211 kts 131°
2026-04-28 11:15 63.23601 30.73099 6970 ft 211 kts 131°
2026-04-28 11:15 63.22455 30.75135 6971 ft 210 kts 131°
2026-04-28 11:16 63.21315 30.77156 6972 ft 210 kts 131°
2026-04-28 11:16 63.20175 30.79179 6972 ft 209 kts 131°
2026-04-28 11:16 63.19040 30.81189 6956 ft 209 kts 131°
2026-04-28 11:16 63.17909 30.83189 6953 ft 208 kts 131°
2026-04-28 11:17 63.16781 30.85185 6956 ft 207 kts 131°
2026-04-28 11:17 63.15653 30.87177 6955 ft 208 kts 131°
2026-04-28 11:17 63.14520 30.89178 6955 ft 209 kts 131°
2026-04-28 11:17 63.13381 30.91183 6955 ft 209 kts 131°
2026-04-28 11:18 63.12247 30.93177 6960 ft 209 kts 131°
2026-04-28 11:18 63.11111 30.95174 6961 ft 208 kts 131°
2026-04-28 11:18 63.09979 30.97164 6959 ft 208 kts 131°
2026-04-28 11:18 63.08845 30.99154 6951 ft 207 kts 131°
2026-04-28 11:19 63.07738 31.01084 7206 ft 199 kts 131°
2026-04-28 11:19 63.06677 31.02943 7454 ft 196 kts 130°
2026-04-28 11:19 63.05617 31.04805 7710 ft 194 kts 130°
2026-04-28 11:19 63.04560 31.06655 7941 ft 195 kts 131°
2026-04-28 11:20 63.03471 31.08573 7954 ft 205 kts 131°
2026-04-28 11:20 63.02345 31.10533 7955 ft 208 kts 131°
2026-04-28 11:20 63.01203 31.12515 7965 ft 210 kts 132°
2026-04-28 11:20 63.00055 31.14510 7962 ft 211 kts 132°
2026-04-28 11:21 62.98904 31.16512 7954 ft 211 kts 132°
2026-04-28 11:21 62.97752 31.18512 7954 ft 211 kts 132°
2026-04-28 11:21 62.96598 31.20515 7963 ft 211 kts 132°
2026-04-28 11:21 62.95445 31.22515 7952 ft 211 kts 132°
2026-04-28 11:22 62.94290 31.24515 7961 ft 212 kts 132°
2026-04-28 11:22 62.93136 31.26512 7962 ft 211 kts 132°
2026-04-28 11:22 62.91980 31.28510 7963 ft 211 kts 132°
2026-04-28 11:22 62.90823 31.30508 7963 ft 212 kts 132°
2026-04-28 11:23 62.89536 31.32183 7944 ft 221 kts 150°
2026-04-28 11:23 62.88011 31.32962 7948 ft 229 kts 170°
2026-04-28 11:23 62.86428 31.32678 7955 ft 235 kts 191°
2026-04-28 11:23 62.84893 31.31426 7966 ft 236 kts 201°
2026-04-28 11:24 62.83363 31.30035 7959 ft 238 kts 201°
2026-04-28 11:24 62.81823 31.28656 7929 ft 239 kts 200°
2026-04-28 11:24 62.80285 31.27279 7936 ft 239 kts 201°
2026-04-28 11:24 62.78745 31.25899 7930 ft 239 kts 201°
2026-04-28 11:25 62.77202 31.24519 7930 ft 239 kts 201°
2026-04-28 11:25 62.75666 31.23147 7938 ft 237 kts 200°
2026-04-28 11:25 62.74142 31.21787 7942 ft 237 kts 200°
2026-04-28 11:25 62.72619 31.20430 7938 ft 236 kts 200°
2026-04-28 11:26 62.71119 31.19094 7933 ft 236 kts 200°
2026-04-28 11:26 62.69601 31.17744 7936 ft 236 kts 200°
2026-04-28 11:26 62.68084 31.16396 7936 ft 236 kts 200°
2026-04-28 11:26 62.66562 31.15045 7936 ft 236 kts 200°
2026-04-28 11:27 62.65043 31.13699 7941 ft 236 kts 200°
2026-04-28 11:27 62.63523 31.12353 7941 ft 236 kts 200°
2026-04-28 11:27 62.62002 31.11007 7941 ft 236 kts 200°
2026-04-28 11:27 62.60483 31.09665 7942 ft 236 kts 200°
2026-04-28 11:28 62.58960 31.08322 7941 ft 236 kts 200°
2026-04-28 11:28 62.57439 31.06981 7941 ft 236 kts 200°
2026-04-28 11:28 62.55917 31.05638 7942 ft 236 kts 200°
2026-04-28 11:28 62.54398 31.04304 7942 ft 236 kts 200°
2026-04-28 11:29 62.52878 31.02967 7944 ft 235 kts 201°
2026-04-28 11:29 62.51488 31.01140 7934 ft 234 kts 220°
2026-04-28 11:29 62.50210 30.98943 7947 ft 235 kts 219°
2026-04-28 11:29 62.48919 30.96770 7950 ft 236 kts 219°
2026-04-28 11:30 62.47625 30.94588 7948 ft 235 kts 219°
2026-04-28 11:30 62.45053 30.90242 7953 ft 234 kts 219°
2026-04-28 11:30 62.43768 30.88077 7954 ft 235 kts 219°
2026-04-28 11:31 62.42480 30.85909 7953 ft 234 kts 219°
2026-04-28 11:31 62.41213 30.83778 7939 ft 234 kts 219°
2026-04-28 11:31 62.39933 30.81629 7940 ft 233 kts 219°
2026-04-28 11:31 62.38651 30.79478 7951 ft 234 kts 219°
2026-04-28 11:32 62.37366 30.77325 7953 ft 234 kts 219°
2026-04-28 11:32 62.36085 30.75180 7952 ft 233 kts 219°
2026-04-28 11:32 62.34803 30.73036 7946 ft 233 kts 219°
2026-04-28 11:32 62.33519 30.70891 7951 ft 234 kts 219°
2026-04-28 11:33 62.32232 30.68743 7955 ft 234 kts 219°
2026-04-28 11:33 62.30941 30.66591 7953 ft 234 kts 219°
2026-04-28 11:33 62.29653 30.64449 7946 ft 234 kts 219°
2026-04-28 11:33 62.28364 30.62305 7961 ft 234 kts 219°
2026-04-28 11:34 62.27076 30.60164 7959 ft 234 kts 219°
2026-04-28 11:34 62.25788 30.58027 7956 ft 234 kts 219°
2026-04-28 11:34 62.24499 30.55892 7955 ft 234 kts 219°
2026-04-28 11:34 62.23209 30.53756 7958 ft 233 kts 218°
2026-04-28 11:35 62.21929 30.51638 7955 ft 232 kts 218°
2026-04-28 11:35 62.20658 30.49539 7953 ft 230 kts 218°
2026-04-28 11:35 62.19386 30.47441 7964 ft 231 kts 218°
2026-04-28 11:35 62.18110 30.45337 7956 ft 232 kts 218°
2026-04-28 11:36 62.16828 30.43225 7956 ft 232 kts 218°
2026-04-28 11:36 62.15548 30.41118 7963 ft 232 kts 218°
2026-04-28 11:36 62.14268 30.39017 7954 ft 232 kts 218°
2026-04-28 11:36 62.12989 30.36920 7971 ft 232 kts 218°
2026-04-28 11:37 62.11728 30.34851 7972 ft 232 kts 218°
2026-04-28 11:37 62.10434 30.32732 7973 ft 231 kts 218°
2026-04-28 11:37 62.09177 30.30676 7971 ft 231 kts 218°
2026-04-28 11:37 62.07901 30.28591 7963 ft 231 kts 218°
2026-04-28 11:38 62.06624 30.26506 7971 ft 231 kts 218°
2026-04-28 11:38 62.05345 30.24421 7958 ft 231 kts 218°
2026-04-28 11:38 62.04065 30.22336 7972 ft 232 kts 218°
2026-04-28 11:38 62.02784 30.20252 7966 ft 232 kts 218°
2026-04-28 11:39 62.01501 30.18168 7971 ft 232 kts 218°
2026-04-28 11:39 62.00222 30.16090 7964 ft 231 kts 218°
2026-04-28 11:39 61.98943 30.14016 7962 ft 231 kts 219°
2026-04-28 11:39 61.97667 30.11950 7966 ft 230 kts 218°
2026-04-28 11:40 61.96393 30.09888 7952 ft 230 kts 218°
2026-04-28 11:40 61.95125 30.07837 7968 ft 228 kts 218°
2026-04-28 11:40 61.93863 30.05800 7976 ft 228 kts 218°
2026-04-28 11:40 61.92601 30.03766 7974 ft 227 kts 218°
2026-04-28 11:41 61.91341 30.01736 7974 ft 228 kts 218°
2026-04-28 11:41 61.90504 30.00387 7975 ft 228 kts 218°
2026-04-28 11:41 61.88826 29.97688 7975 ft 228 kts 218°
2026-04-28 11:41 61.87557 29.95651 7974 ft 229 kts 218°
2026-04-28 11:42 61.86286 29.93610 7975 ft 229 kts 218°
2026-04-28 11:42 61.85017 29.91577 7977 ft 228 kts 218°
2026-04-28 11:42 61.84162 29.90208 7983 ft 228 kts 218°
2026-04-28 11:42 61.82896 29.88183 7982 ft 228 kts 218°
2026-04-28 11:43 61.81626 29.86154 7979 ft 229 kts 218°
2026-04-28 11:43 61.80353 29.84122 7981 ft 229 kts 218°
2026-04-28 11:43 61.79083 29.82096 7981 ft 229 kts 218°
2026-04-28 11:43 61.77830 29.80099 7984 ft 229 kts 218°
2026-04-28 11:44 61.76557 29.78074 7983 ft 228 kts 218°
2026-04-28 11:44 61.75285 29.76052 7981 ft 229 kts 218°
2026-04-28 11:44 61.74014 29.74036 7991 ft 228 kts 218°
2026-04-28 11:44 61.72752 29.72033 7980 ft 227 kts 219°
2026-04-28 11:45 61.71492 29.70032 7985 ft 227 kts 219°
2026-04-28 11:45 61.70230 29.68035 7983 ft 227 kts 219°
2026-04-28 11:45 61.68971 29.66045 7988 ft 226 kts 219°
2026-04-28 11:45 61.67714 29.64060 7984 ft 225 kts 219°
2026-04-28 11:46 61.66457 29.62076 7984 ft 225 kts 219°
2026-04-28 11:46 61.65202 29.60096 7981 ft 225 kts 219°
2026-04-28 11:46 61.63953 29.58132 7982 ft 223 kts 219°
2026-04-28 11:46 61.62709 29.56175 7984 ft 224 kts 219°
2026-04-28 11:47 61.61462 29.54214 7984 ft 224 kts 219°
2026-04-28 11:47 61.60211 29.52250 7987 ft 224 kts 219°
2026-04-28 11:47 61.58963 29.50293 7987 ft 224 kts 219°
2026-04-28 11:47 61.57716 29.48340 7990 ft 224 kts 218°
2026-04-28 11:48 61.56463 29.46377 7989 ft 225 kts 219°
2026-04-28 11:48 61.55205 29.44411 7992 ft 224 kts 218°
2026-04-28 11:48 61.53956 29.42461 8001 ft 223 kts 219°
2026-04-28 11:48 61.52766 29.40464 7997 ft 221 kts 225°
2026-04-28 11:49 61.51617 29.38314 7992 ft 222 kts 224°
2026-04-28 11:49 61.50449 29.36169 7993 ft 224 kts 224°
2026-04-28 11:49 61.49275 29.34017 7997 ft 224 kts 224°
2026-04-28 11:49 61.48099 29.31851 7998 ft 225 kts 224°
2026-04-28 11:50 61.46920 29.29684 8000 ft 226 kts 224°
2026-04-28 11:50 61.45738 29.27515 7997 ft 226 kts 224°
2026-04-28 11:50 61.44554 29.25344 7997 ft 225 kts 224°
2026-04-28 11:50 61.43390 29.23214 7930 ft 228 kts 224°
2026-04-28 11:51 61.42179 29.20994 7671 ft 234 kts 224°
2026-04-28 11:51 61.40953 29.18754 7420 ft 234 kts 224°
2026-04-28 11:51 61.39729 29.16521 7162 ft 233 kts 224°
2026-04-28 11:51 61.38510 29.14299 6904 ft 232 kts 224°
2026-04-28 11:52 61.37288 29.12074 6647 ft 232 kts 225°
2026-04-28 11:52 61.36091 29.09894 6395 ft 230 kts 225°
2026-04-28 11:52 61.34878 29.07690 6124 ft 231 kts 225°
2026-04-28 11:52 61.33669 29.05492 5854 ft 230 kts 225°
2026-04-28 11:53 61.32461 29.03304 5585 ft 229 kts 225°
2026-04-28 11:53 61.31257 29.01121 5318 ft 228 kts 225°
2026-04-28 11:53 61.30074 28.98979 5058 ft 228 kts 226°
2026-04-28 11:53 61.28891 28.96842 4977 ft 221 kts 225°
2026-04-28 11:54 61.27745 28.94775 4966 ft 216 kts 225°
2026-04-28 11:54 61.26607 28.92718 4964 ft 214 kts 225°
2026-04-28 11:54 61.25497 28.90717 4979 ft 211 kts 225°
2026-04-28 11:54 61.24386 28.88713 4976 ft 210 kts 226°
2026-04-28 11:55 61.23275 28.86716 4978 ft 210 kts 226°
2026-04-28 11:55 61.22185 28.84756 4976 ft 210 kts 226°
2026-04-28 11:55 61.21076 28.82764 4975 ft 211 kts 226°
2026-04-28 11:55 61.19960 28.80759 4977 ft 213 kts 226°
2026-04-28 11:56 61.18838 28.78750 4978 ft 214 kts 226°
2026-04-28 11:56 61.17714 28.76737 4980 ft 214 kts 226°
2026-04-28 11:56 61.16589 28.74725 4989 ft 213 kts 225°
2026-04-28 11:56 61.15466 28.72719 4993 ft 214 kts 226°
2026-04-28 11:57 61.14337 28.70700 4991 ft 215 kts 225°
2026-04-28 11:57 61.13209 28.68690 4994 ft 214 kts 225°
2026-04-28 11:57 61.12082 28.66681 4995 ft 213 kts 225°
2026-04-28 11:57 61.10959 28.64684 4996 ft 213 kts 225°
2026-04-28 11:58 61.09838 28.62690 4993 ft 213 kts 225°
2026-04-28 11:58 61.08732 28.60723 4991 ft 212 kts 225°
2026-04-28 11:58 61.07615 28.58744 4987 ft 211 kts 225°
2026-04-28 11:58 61.06504 28.56772 4985 ft 210 kts 225°
2026-04-28 11:59 61.05394 28.54805 4988 ft 210 kts 226°
2026-04-28 11:59 61.04286 28.52845 4988 ft 210 kts 226°
2026-04-28 11:59 61.03179 28.50885 4984 ft 208 kts 225°
2026-04-28 11:59 61.02081 28.48948 4985 ft 207 kts 226°
2026-04-28 12:00 61.00984 28.47010 4987 ft 207 kts 226°
2026-04-28 12:00 60.99889 28.45078 4985 ft 207 kts 226°
2026-04-28 12:00 60.98795 28.43153 4984 ft 206 kts 226°
2026-04-28 12:00 60.97706 28.41237 4987 ft 205 kts 226°
2026-04-28 12:01 60.96619 28.39326 4986 ft 206 kts 226°
2026-04-28 12:01 60.95527 28.37403 4992 ft 210 kts 226°
2026-04-28 12:01 60.94409 28.35439 5005 ft 212 kts 226°
2026-04-28 12:01 60.93284 28.33471 4998 ft 213 kts 226°
2026-04-28 12:02 60.92158 28.31499 5002 ft 213 kts 226°
2026-04-28 12:02 60.91029 28.29523 5002 ft 213 kts 226°
2026-04-28 12:02 60.89899 28.27547 4999 ft 213 kts 226°
2026-04-28 12:02 60.88767 28.25571 5002 ft 214 kts 226°
2026-04-28 12:03 60.87664 28.23542 4999 ft 213 kts 227°
2026-04-28 12:03 60.86546 28.21529 4998 ft 214 kts 226°
2026-04-28 12:03 60.85424 28.19527 5000 ft 213 kts 226°
2026-04-28 12:03 60.84313 28.17519 5000 ft 213 kts 227°
2026-04-28 12:04 60.83204 28.15509 4999 ft 212 kts 227°
2026-04-28 12:04 60.82097 28.13508 4998 ft 212 kts 227°
2026-04-28 12:04 60.80988 28.11505 4998 ft 213 kts 227°
2026-04-28 12:04 60.79885 28.09530 5000 ft 214 kts 226°
2026-04-28 12:05 60.78768 28.07531 4994 ft 213 kts 226°
2026-04-28 12:05 60.77659 28.05522 4995 ft 213 kts 227°
2026-04-28 12:05 60.76545 28.03501 4994 ft 214 kts 227°
2026-04-28 12:05 60.75423 28.01481 4993 ft 215 kts 226°
2026-04-28 12:06 60.74301 27.99472 4996 ft 214 kts 226°
2026-04-28 12:06 60.73182 27.97467 4997 ft 213 kts 226°
2026-04-28 12:06 60.72065 27.95464 4997 ft 214 kts 226°
2026-04-28 12:06 60.70946 27.93460 4997 ft 214 kts 226°
2026-04-28 12:07 60.69825 27.91458 4995 ft 214 kts 226°
2026-04-28 12:07 60.68707 27.89458 4998 ft 214 kts 226°
2026-04-28 12:07 60.67583 27.87479 4998 ft 214 kts 224°
2026-04-28 12:07 60.66427 27.85568 4996 ft 214 kts 226°
2026-04-28 12:08 60.65313 27.83565 4997 ft 213 kts 227°
2026-04-28 12:08 60.64206 27.81556 4999 ft 213 kts 227°
2026-04-28 12:08 60.63090 27.79555 4998 ft 214 kts 226°
2026-04-28 12:08 60.61970 27.77562 4996 ft 214 kts 226°
2026-04-28 12:09 60.60864 27.75592 4999 ft 213 kts 226°
2026-04-28 12:09 60.59754 27.73620 5004 ft 212 kts 226°
2026-04-28 12:09 60.58640 27.71641 5002 ft 212 kts 226°
2026-04-28 12:09 60.57530 27.69666 5003 ft 212 kts 226°
2026-04-28 12:10 60.56421 27.67697 5003 ft 211 kts 226°
2026-04-28 12:10 60.55329 27.65707 4993 ft 208 kts 231°
2026-04-28 12:10 60.54557 27.63313 5002 ft 200 kts 252°
2026-04-28 12:10 60.54206 27.60643 4999 ft 194 kts 271°
2026-04-28 12:11 60.54272 27.57966 4997 ft 187 kts 288°
2026-04-28 12:11 60.54709 27.55530 4979 ft 182 kts 304°
2026-04-28 12:11 60.55450 27.53518 4968 ft 175 kts 319°
2026-04-28 12:11 60.56399 27.52057 4968 ft 171 kts 333°
2026-04-28 12:12 60.57505 27.51152 4859 ft 172 kts 345°
2026-04-28 12:12 60.58652 27.50394 4759 ft 174 kts 343°
2026-04-28 12:12 60.59797 27.49617 4660 ft 172 kts 343°
2026-04-28 12:12 60.60931 27.48852 4553 ft 171 kts 343°
2026-04-28 12:13 60.62059 27.48094 4447 ft 170 kts 343°
2026-04-28 12:13 60.63168 27.47346 4340 ft 170 kts 343°
2026-04-28 12:13 60.64296 27.46586 4231 ft 170 kts 343°
2026-04-28 12:13 60.65417 27.45830 4125 ft 169 kts 343°
2026-04-28 12:14 60.66535 27.45076 4017 ft 169 kts 343°
2026-04-28 12:14 60.67649 27.44324 3908 ft 169 kts 343°
2026-04-28 12:14 60.68762 27.43571 3802 ft 168 kts 343°
2026-04-28 12:14 60.69873 27.42818 3710 ft 168 kts 344°
2026-04-28 12:15 60.70983 27.42067 3598 ft 168 kts 343°
2026-04-28 12:15 60.72093 27.41315 3492 ft 167 kts 343°
2026-04-28 12:15 60.73199 27.40566 3366 ft 167 kts 343°
2026-04-28 12:15 60.74305 27.39815 3234 ft 167 kts 343°
2026-04-28 12:16 60.75396 27.39074 3099 ft 167 kts 343°
2026-04-28 12:16 60.76500 27.38324 2963 ft 167 kts 343°
2026-04-28 12:16 60.77607 27.37571 2832 ft 168 kts 343°
2026-04-28 12:16 60.78718 27.36815 2700 ft 168 kts 343°
2026-04-28 12:17 60.79828 27.36061 2569 ft 168 kts 343°
2026-04-28 12:17 60.80942 27.35299 2442 ft 169 kts 343°
2026-04-28 12:17 60.82065 27.34535 2313 ft 170 kts 343°
2026-04-28 12:17 60.83164 27.33685 2219 ft 168 kts 336°
2026-04-28 12:18 60.84067 27.32163 2129 ft 173 kts 313°
2026-04-28 12:18 60.84611 27.29920 2060 ft 177 kts 300°
2026-04-28 12:18 60.85093 27.27589 1985 ft 178 kts 300°
2026-04-28 12:18 60.85557 27.25234 1929 ft 177 kts 298°
2026-04-28 12:19 60.85985 27.22882 1839 ft 178 kts 298°
2026-04-28 12:19 60.86429 27.20507 1751 ft 177 kts 298°
2026-04-28 12:19 60.86883 27.18199 1721 ft 172 kts 300°
2026-04-28 12:19 60.87367 27.15953 1666 ft 171 kts 301°
2026-04-28 12:20 60.87867 27.13742 1587 ft 171 kts 303°
2026-04-28 12:20 60.88444 27.11612 1514 ft 170 kts 306°
2026-04-28 12:20 60.88982 27.09440 1450 ft 171 kts 302°
2026-04-28 12:20 60.89503 27.07262 1376 ft 167 kts 302°
2026-04-28 12:21 60.89922 27.05050 1267 ft 164 kts 296°
2026-04-28 12:21 60.90237 27.02966 1062 ft 145 kts 292°
2026-04-28 12:21 60.90328 27.01086 912 ft 125 kts 278°
2026-04-28 12:21 60.90204 26.99445 791 ft 109 kts 270°
2026-04-28 12:22 60.90044 26.98082 600 ft 91 kts 276°
2026-04-28 12:22 60.89937 26.96766 503 ft 96 kts 273°
2026-04-28 12:22 60.89806 26.95474 374 ft 87 kts 275°
2026-04-28 12:22 60.89699 26.94358 335 ft 69 kts 258°
2026-04-28 12:23 60.89602 26.93480 335 ft 57 kts 258°
2026-04-28 12:23 60.89536 26.92811 330 ft 31 kts 257°
2026-04-28 12:23 60.89487 26.92325 332 ft 27 kts 257°
2026-04-28 12:23 60.89456 26.92159 331 ft 14 kts 230°
2026-04-28 12:24 60.89350 26.92039 331 ft 21 kts 209°
2026-04-28 12:24 60.89261 26.91944 327 ft 10 kts 216°
2026-04-28 12:24 60.89232 26.91821 329 ft 11 kts 232°
2026-04-28 12:24 60.89189 26.91747 331 ft 2 kts 231°
2026-04-28 12:25 60.89189 26.91713 330 ft 4 kts 322°
2026-04-28 12:25 60.89209 26.91711 331 ft 0 kts 355°